Temp
-12 -12 -12 -12 -12 -12 -12 -12 -12 -12 -13 -13 -13 -13 -13 -13 -13 -13 -13 -13 -13 -14 -14 -14 -14 -14 -13 -13 -13 -13 -12 -10 -10 -11 -11 -13 -10 -9 -9 -10 -10 -9 -9 -9 -8
-12 -12 -12 -12 -12 -12 -12 -12 -12 -12 -13 -13 -13 -13 -13 -13 -14 -14 -13 -14 -14 -14 -14 -14 -15 -14 -13 -14 -13 -13 -11 -11 -12 -13 -12 -10 -10 -9 -9 -10 -10 -9 -9 -9 -9
-13 -13 -13 -12 -12 -12 -12 -12 -12 -12 -13 -13 -13 -13 -13 -14 -14 -14 -14 -14 -14 -14 -14 -15 -14 -14 -14 -14 -14 -12 -12 -12 -12 -13 -13 -11 -10 -10 -9 -9 -10 -10 -10 -9 -8
-13 -13 -13 -13 -13 -12 -12 -12 -13 -13 -13 -14 -14 -14 -14 -14 -14 -14 -14 -14 -14 -14 -14 -15 -14 -14 -14 -14 -14 -13 -12 -12 -12 -12 -12 -11 -11 -10 -10 -9 -10 -11 -10 -10 -9
-13 -13 -13 -13 -13 -12 -12 -12 -13 -13 -13 -14 -14 -14 -14 -14 -14 -14 -14 -14 -14 -14 -15 -15 -14 -14 -14 -13 -13 -13 -12 -11 -12 -12 -11 -12 -12 -11 -10 -9 -11 -11 -11 -10 -10
-14 -13 -13 -13 -13 -13 -13 -13 -13 -13 -14 -14 -14 -14 -14 -14 -14 -14 -14 -14 -14 -14 -14 -14 -14 -14 -14 -14 -14 -13 -13 -13 -13 -13 -13 -13 -12 -12 -10 -10 -11 -12 -12 -11 -10
-15 -14 -14 -13 -13 -13 -13 -13 -13 -13 -13 -14 -14 -14 -14 -14 -14 -14 -14 -14 -15 -15 -14 -14 -14 -14 -14 -14 -13 -13 -13 -13 -13 -13 -12 -13 -12 -10 -11 -12 -11 -13 -12 -12 -11
-15 -15 -14 -14 -13 -13 -13 -13 -13 -13 -13 -13 -14 -14 -15 -15 -14 -14 -14 -14 -14 -14 -14 -14 -14 -14 -14 -14 -13 -13 -13 -13 -13 -13 -13 -12 -10 -11 -12 -12 -11 -11 -12 -12 -12
-15 -15 -15 -14 -14 -13 -13 -13 -13 -13 -13 -13 -14 -14 -15 -15 -15 -14 -14 -14 -14 -14 -14 -14 -14 -14 -14 -14 -14 -13 -13 -13 -13 -13 -13 -12 -11 -11 -11 -11 -10 -11 -12 -12 -12
-14 -14 -15 -15 -14 -14 -13 -13 -13 -13 -13 -14 -14 -14 -15 -15 -15 -15 -15 -14 -14 -14 -14 -14 -14 -14 -14 -13 -13 -13 -13 -13 -13 -13 -13 -12 -11 -11 -11 -11 -11 -11 -11 -11 -11
-14 -14 -14 -15 -15 -14 -14 -14 -14 -14 -14 -14 -14 -14 -15 -15 -15 -15 -15 -15 -15 -14 -14 -14 -14 -14 -14 -14 -14 -13 -13 -13 -13 -13 -13 -12 -11 -11 -11 -11 -11 -11 -12 -11 -11
-14 -14 -14 -15 -15 -15 -14 -14 -14 -14 -14 -14 -14 -14 -15 -15 -15 -16 -16 -16 -16 -15 -15 -15 -15 -14 -14 -14 -14 -14 -14 -13 -13 -13 -13 -12 -11 -12 -12 -11 -11 -11 -11 -11 -11
-13 -14 -14 -14 -15 -15 -15 -15 -15 -14 -14 -14 -14 -15 -15 -15 -15 -16 -16 -16 -16 -16 -16 -16 -15 -15 -15 -15 -15 -15 -14 -14 -13 -13 -13 -12 -11 -11 -12 -12 -12 -11 -11 -11 -11
-13 -13 -13 -14 -15 -15 -15 -15 -15 -15 -15 -14 -15 -15 -16 -16 -16 -16 -16 -16 -16 -16 -16 -16 -16 -16 -16 -16 -16 -16 -16 -14 -14 -14 -13 -13 -11 -11 -11 -12 -12 -12 -12 -12 -11
-13 -13 -13 -14 -14 -14 -15 -15 -15 -15 -15 -15 -16 -16 -16 -16 -16 -16 -16 -16 -16 -16 -17 -17 -17 -17 -17 -17 -17 -17 -16 -16 -16 -15 -14 -14 -14 -11 -12 -12 -12 -13 -12 -12 -11
-13 -13 -13 -14 -14 -15 -15 -15 -15 -15 -15 -16 -16 -16 -16 -16 -16 -16 -17 -17 -17 -16 -17 -17 -17 -17 -17 -17 -17 -17 -17 -16 -16 -16 -15 -16 -16 -10 -12 -13 -13 -13 -12 -12 -11
-13 -13 -14 -14 -14 -14 -15 -15 -15 -15 -15 -16 -15 -16 -16 -16 -17 -16 -17 -17 -17 -17 -18 -18 -18 -18 -18 -18 -18 -18 -18 -17 -17 -17 -17 -17 -18 -12 -13 -14 -14 -13 -13 -12 -12
-14 -14 -14 -14 -14 -14 -15 -15 -15 -15 -16 -16 -16 -16 -17 -17 -17 -18 -18 -18 -18 -18 -18 -18 -18 -19 -19 -19 -18 -18 -18 -19 -19 -19 -19 -19 -18 -13 -16 -17 -17 -15 -14 -13 -12
-14 -14 -14 -14 -14 -15 -15 -15 -15 -16 -16 -16 -17 -17 -17 -17 -18 -18 -19 -19 -18 -19 -19 -19 -19 -19 -20 -19 -19 -19 -19 -19 -21 -21 -22 -21 -20 -20 -19 -19 -19 -19 -17 -16 -14
-14 -14 -14 -14 -15 -15 -15 -15 -15 -16 -16 -16 -16 -17 -17 -18 -18 -19 -19 -19 -19 -19 -19 -19 -18 -19 -20 -19 -19 -19 -19 -20 -21 -21 -22 -21 -21 -20 -20 -20 -20 -20 -19 -19 -17
-14 -14 -15 -15 -15 -15 -15 -15 -16 -16 -16 -16 -16 -17 -17 -18 -18 -19 -19 -19 -19 -19 -19 -20 -19 -19 -19 -19 -19 -20 -20 -21 -21 -22 -22 -21 -20 -20 -20 -20 -20 -20 -19 -19 -19
-14 -14 -15 -15 -15 -15 -15 -16 -16 -16 -16 -16 -16 -16 -17 -18 -18 -19 -19 -19 -19 -19 -19 -20 -19 -19 -19 -19 -19 -20 -21 -21 -22 -22 -22 -21 -20 -20 -20 -20 -20 -19 -19 -19 -18
-14 -14 -14 -15 -15 -16 -16 -16 -16 -16 -16 -16 -17 -17 -18 -18 -18 -18 -19 -19 -19 -20 -20 -20 -19 -19 -19 -20 -20 -20 -21 -22 -22 -22 -21 -22 -20 -20 -20 -20 -20 -19 -19 -18 -17
-13 -14 -14 -14 -15 -16 -16 -16 -16 -16 -16 -17 -17 -17 -17 -18 -18 -18 -19 -19 -19 -20 -20 -20 -19 -20 -19 -20 -19 -20 -21 -21 -22 -21 -21 -21 -20 -20 -20 -20 -20 -20 -19 -18 -18
-13 -14 -14 -14 -15 -15 -16 -16 -17 -17 -17 -18 -18 -17 -17 -17 -18 -18 -19 -19 -20 -20 -20 -20 -19 -20 -19 -20 -20 -20 -21 -21 -21 -21 -21 -21 -20 -20 -20 -20 -20 -19 -19 -18 -18
-14 -14 -15 -15 -15 -15 -16 -16 -17 -17 -17 -17 -17 -18 -18 -18 -18 -18 -18 -19 -20 -21 -20 -20 -20 -20 -20 -20 -20 -20 -21 -21 -21 -21 -21 -21 -21 -20 -20 -20 -20 -20 -19 -18 -19
-14 -15 -15 -15 -15 -15 -16 -16 -17 -17 -17 -18 -17 -17 -18 -18 -19 -19 -18 -19 -19 -20 -21 -20 -20 -20 -19 -20 -20 -20 -21 -21 -21 -21 -21 -20 -21 -20 -20 -19 -20 -21 -18 -18 -18
Height
5748 5748 5748 5748 5747 5747 5747 5746 5746 5746 5746 5746 5746 5745 5744 5744 5743 5743 5743 5744 5744 5746 5748 5753 5759 5765 5769 5772 5776 5778 5780 5785 5794 5801 5805 5804 5811 5817 5824 5830 5833 5832 5834 5838 5845
5745 5744 5744 5744 5743 5743 5742 5742 5741 5741 5740 5740 5740 5739 5739 5738 5737 5737 5737 5736 5736 5737 5739 5744 5750 5757 5762 5766 5769 5773 5775 5780 5790 5788 5788 5794 5802 5807 5817 5825 5829 5828 5828 5832 5837
5741 5741 5740 5740 5739 5739 5738 5737 5737 5736 5736 5735 5734 5734 5733 5733 5733 5732 5731 5730 5730 5731 5733 5737 5743 5749 5755 5760 5763 5767 5769 5773 5778 5780 5780 5791 5796 5798 5808 5820 5822 5821 5823 5825 5829
5739 5738 5737 5737 5736 5735 5734 5733 5732 5731 5731 5730 5730 5729 5729 5729 5729 5728 5727 5727 5726 5727 5729 5733 5737 5743 5749 5752 5756 5758 5761 5763 5768 5769 5773 5781 5788 5794 5796 5814 5812 5815 5818 5819 5822
5736 5736 5735 5734 5733 5732 5730 5729 5727 5726 5725 5725 5725 5725 5725 5726 5725 5722 5723 5724 5723 5724 5726 5729 5732 5736 5741 5745 5749 5751 5755 5756 5760 5761 5766 5771 5779 5782 5792 5805 5802 5807 5810 5814 5815
5734 5733 5733 5732 5731 5729 5727 5726 5723 5722 5720 5719 5720 5721 5721 5722 5719 5720 5720 5720 5720 5721 5724 5725 5727 5730 5734 5738 5740 5742 5745 5749 5751 5754 5758 5761 5767 5770 5787 5789 5795 5797 5801 5806 5809
5730 5730 5729 5729 5728 5726 5724 5722 5720 5718 5716 5714 5714 5714 5716 5717 5717 5717 5715 5717 5718 5718 5719 5720 5722 5725 5728 5730 5732 5735 5736 5739 5740 5743 5747 5751 5756 5765 5773 5773 5778 5785 5791 5797 5802
5727 5726 5726 5725 5724 5723 5721 5719 5717 5715 5713 5711 5709 5709 5709 5712 5713 5711 5711 5712 5713 5714 5714 5715 5717 5719 5722 5725 5726 5728 5728 5729 5730 5734 5739 5743 5751 5759 5759 5757 5763 5772 5773 5782 5789
5723 5722 5722 5721 5721 5719 5718 5716 5714 5713 5710 5708 5706 5705 5706 5706 5707 5706 5707 5707 5707 5709 5710 5711 5713 5714 5716 5718 5720 5720 5719 5719 5723 5728 5733 5737 5739 5747 5750 5752 5754 5761 5767 5770 5777
5720 5719 5718 5718 5717 5716 5715 5713 5711 5710 5708 5705 5703 5703 5702 5701 5699 5699 5702 5701 5702 5703 5704 5705 5707 5708 5709 5711 5712 5712 5712 5712 5716 5720 5722 5726 5731 5734 5741 5742 5744 5747 5757 5763 5768
5718 5715 5715 5714 5713 5713 5712 5710 5710 5708 5704 5702 5700 5698 5697 5696 5695 5695 5695 5696 5696 5696 5697 5698 5700 5701 5701 5702 5704 5703 5704 5706 5708 5708 5711 5714 5721 5728 5730 5732 5734 5739 5745 5750 5757
5717 5714 5712 5712 5711 5710 5709 5707 5706 5704 5702 5699 5697 5695 5693 5692 5691 5691 5692 5691 5690 5690 5690 5691 5692 5692 5693 5693 5694 5694 5695 5697 5698 5699 5699 5704 5710 5715 5719 5721 5723 5726 5731 5738 5742
5718 5715 5712 5710 5709 5709 5707 5705 5704 5701 5698 5696 5693 5691 5690 5688 5686 5687 5686 5684 5684 5684 5684 5684 5684 5684 5684 5686 5686 5685 5684 5688 5688 5689 5691 5690 5697 5702 5705 5706 5711 5714 5717 5720 5726
5719 5716 5712 5710 5709 5707 5705 5704 5701 5699 5696 5694 5691 5688 5686 5684 5683 5682 5681 5680 5678 5678 5678 5677 5677 5676 5676 5676 5676 5676 5675 5676 5677 5677 5677 5680 5680 5689 5692 5693 5695 5698 5699 5706 5713
5720 5716 5713 5711 5709 5707 5705 5702 5699 5697 5695 5693 5690 5686 5682 5682 5679 5678 5677 5675 5674 5673 5675 5671 5672 5670 5669 5668 5668 5666 5666 5666 5665 5664 5661 5667 5661 5679 5679 5680 5680 5679 5682 5688 5695
5724 5718 5713 5710 5708 5705 5703 5699 5697 5695 5691 5689 5686 5683 5680 5677 5676 5674 5673 5672 5669 5668 5669 5668 5664 5663 5662 5661 5659 5657 5655 5652 5651 5650 5650 5648 5643 5668 5665 5662 5661 5661 5666 5670 5675
5727 5721 5716 5711 5707 5704 5701 5698 5695 5691 5688 5685 5681 5678 5675 5672 5668 5666 5665 5664 5662 5661 5662 5660 5658 5656 5654 5651 5649 5649 5645 5640 5636 5635 5635 5635 5628 5651 5644 5643 5639 5642 5645 5650 5657
5728 5723 5718 5713 5708 5703 5700 5697 5692 5689 5684 5680 5676 5672 5669 5666 5662 5660 5657 5656 5654 5653 5653 5654 5653 5650 5647 5643 5641 5641 5638 5634 5623 5620 5617 5623 5615 5630 5628 5621 5621 5622 5626 5632 5637
5727 5723 5718 5714 5709 5703 5699 5694 5691 5686 5683 5678 5673 5669 5665 5660 5657 5654 5651 5649 5648 5648 5646 5642 5645 5645 5641 5637 5633 5631 5627 5623 5616 5612 5605 5605 5607 5608 5615 5610 5608 5610 5610 5612 5616
5726 5721 5716 5711 5706 5702 5698 5693 5688 5683 5679 5674 5669 5665 5660 5655 5651 5648 5646 5642 5640 5640 5639 5636 5635 5637 5634 5631 5626 5624 5620 5615 5610 5603 5598 5596 5594 5599 5603 5604 5601 5600 5597 5598 5598
5724 5719 5714 5709 5704 5701 5696 5690 5686 5681 5675 5671 5665 5661 5656 5652 5647 5643 5641 5638 5635 5634 5632 5630 5630 5631 5628 5624 5620 5618 5613 5607 5604 5598 5593 5589 5590 5595 5597 5596 5593 5591 5590 5589 5587
5722 5717 5712 5707 5702 5696 5692 5687 5683 5677 5672 5667 5661 5656 5651 5647 5644 5639 5635 5631 5630 5629 5627 5625 5624 5624 5624 5620 5616 5611 5607 5601 5596 5594 5589 5585 5583 5589 5589 5587 5585 5584 5581 5577 5574
5719 5714 5709 5704 5699 5693 5687 5683 5678 5673 5667 5662 5658 5653 5648 5643 5638 5634 5630 5626 5624 5622 5621 5621 5620 5617 5618 5616 5610 5605 5599 5594 5590 5586 5583 5579 5579 5583 5582 5579 5578 5574 5571 5562 5559
5715 5710 5705 5699 5695 5690 5685 5678 5673 5668 5663 5657 5652 5648 5643 5638 5633 5629 5625 5621 5616 5615 5613 5612 5613 5611 5610 5607 5603 5600 5594 5588 5582 5579 5578 5573 5573 5577 5574 5572 5570 5565 5559 5554 5549
5712 5707 5700 5694 5687 5683 5679 5673 5667 5663 5658 5652 5648 5642 5636 5632 5628 5623 5619 5613 5611 5608 5606 5604 5606 5604 5603 5600 5597 5592 5588 5582 5575 5574 5569 5571 5566 5568 5568 5565 5563 5558 5551 5544 5543
5707 5703 5696 5689 5683 5676 5670 5666 5661 5656 5651 5646 5641 5636 5630 5626 5621 5617 5613 5607 5605 5600 5598 5597 5598 5597 5596 5593 5590 5586 5582 5578 5573 5570 5566 5563 5561 5561 5560 5559 5558 5552 5545 5540 5540
5702 5697 5691 5683 5676 5670 5664 5658 5653 5648 5644 5638 5633 5629 5624 5619 5614 5610 5605 5602 5598 5595 5590 5587 5590 5590 5590 5588 5585 5583 5578 5574 5570 5567 5564 5561 5559 5556 5554 5552 5551 5547 5542 5537 5539
Wind_Speed
13 15 16 17 18 19 21 22 24 26 26 26 26 25 25 24 24 27 32 35 38 41 44 46 50 49 47 45 50 45 46 42 45 37 48 38 49 53 54 39 43 46 44 37 34
13 14 14 15 16 17 18 19 21 23 24 25 25 25 25 23 23 23 27 31 32 35 39 45 51 49 49 45 47 48 52 45 40 36 40 50 59 51 56 43 38 46 47 41 36
12 13 14 15 16 17 18 20 21 21 21 21 23 24 25 23 23 21 23 25 27 30 36 43 48 51 50 50 50 45 44 50 50 49 41 48 54 51 53 51 42 43 45 45 42
11 11 12 13 13 14 16 18 20 22 21 20 18 21 22 22 24 23 22 22 22 25 28 37 44 49 50 53 50 46 40 41 52 53 48 46 51 57 51 54 47 40 45 46 44
9 10 10 11 13 14 14 17 19 21 22 22 20 19 18 20 21 25 23 21 19 20 25 29 38 44 46 46 46 47 45 43 43 40 49 47 52 57 63 54 50 46 41 48 47
11 10 10 11 11 10 11 13 15 18 20 22 22 22 21 19 23 24 23 23 22 21 23 26 29 35 41 44 46 48 47 47 48 48 47 46 39 47 51 52 51 55 44 44 48
11 11 12 11 11 11 11 12 14 15 17 20 21 24 23 22 23 23 25 24 24 26 24 25 27 30 34 37 41 42 45 46 47 47 48 48 46 40 35 55 60 48 57 44 47
15 13 13 14 13 11 11 13 14 14 14 16 19 22 25 23 21 24 26 26 26 26 28 28 28 31 32 34 37 39 43 44 46 45 44 46 46 41 46 47 67 60 63 61 50
15 18 17 14 14 13 13 14 13 12 13 13 15 16 19 21 25 28 26 25 26 26 27 29 31 33 34 35 37 39 42 44 44 44 45 47 47 45 50 49 50 61 64 65 63
13 15 17 18 16 14 14 14 15 14 13 14 14 14 14 17 23 25 24 28 28 29 29 30 31 32 35 36 37 40 43 45 45 46 47 46 46 46 47 51 51 53 61 69 59
14 13 14 15 15 16 16 16 16 16 16 16 16 15 14 16 19 19 21 24 27 29 30 32 31 32 36 38 39 41 43 45 46 49 49 49 48 47 47 50 53 54 57 61 64
16 15 12 13 14 14 15 16 16 17 17 17 18 17 16 16 18 18 19 22 24 26 26 28 29 32 34 37 38 40 43 44 47 49 53 52 50 49 49 52 55 56 58 59 61
21 17 13 10 12 13 14 16 16 17 17 18 20 18 15 15 16 16 18 22 23 24 25 27 29 30 32 33 36 38 42 45 48 49 51 56 54 53 54 55 55 56 58 60 62
22 20 18 12 11 13 14 15 16 17 20 22 20 16 15 17 21 19 19 21 22 22 23 25 25 27 29 31 34 36 40 43 46 49 53 54 58 55 57 58 59 60 62 62 61
25 22 20 16 14 15 15 16 18 15 19 17 15 16 19 20 23 20 19 21 22 24 21 24 22 25 26 29 31 33 38 41 46 49 54 52 59 58 59 60 61 62 65 65 65
28 26 23 20 17 16 16 16 16 17 21 17 14 18 23 26 24 22 20 19 22 22 17 15 21 23 24 24 24 25 31 37 39 41 49 47 51 53 55 58 63 69 69 70 70
30 27 25 22 20 19 19 18 19 19 20 21 22 24 25 25 27 26 23 21 21 23 15 16 17 17 18 23 28 28 34 44 51 53 49 45 47 48 52 51 61 66 71 73 73
28 28 26 25 23 22 22 22 22 21 21 22 24 26 27 28 30 27 27 24 24 25 21 17 15 16 20 25 29 28 32 38 49 51 51 40 48 46 42 47 48 59 66 69 74
27 25 25 25 24 24 25 24 24 23 20 20 21 23 25 27 28 26 25 26 25 24 23 24 15 13 17 23 29 30 32 37 38 37 42 44 37 38 30 39 41 42 52 61 70
28 27 26 26 25 24 24 23 23 25 24 25 24 24 23 24 25 23 23 28 27 25 24 22 20 13 16 23 29 29 32 32 32 39 37 30 29 26 34 35 38 41 42 43 50
28 27 26 25 24 24 24 25 24 24 25 25 25 26 26 21 20 22 24 25 26 26 24 20 19 15 17 23 26 28 30 31 32 33 31 34 30 24 24 26 27 29 39 43 46
28 28 28 27 27 27 27 25 25 24 25 25 27 29 27 25 21 22 23 25 24 24 21 21 20 18 15 21 25 31 27 30 32 28 30 35 26 25 28 29 29 28 32 38 44
28 29 29 28 27 27 29 29 28 27 28 28 26 25 25 26 26 23 23 24 26 25 21 21 21 21 14 18 23 27 31 30 31 30 30 37 25 26 27 25 25 25 28 29 39
28 30 30 30 30 27 26 29 29 29 28 30 30 29 27 25 25 24 24 25 26 24 24 24 20 20 19 19 22 18 20 31 31 30 27 33 28 24 23 25 29 33 34 24 19
26 29 33 34 36 35 30 29 30 29 29 30 29 31 31 29 27 24 26 28 25 24 24 26 22 21 19 18 21 20 19 22 30 29 34 25 30 27 23 24 26 27 35 11 13
27 26 31 35 36 37 37 33 32 32 34 33 33 31 33 32 31 26 25 27 24 26 24 25 23 21 20 20 23 20 20 23 20 19 22 25 23 25 28 26 19 25 35 2 13
27 25 30 37 37 39 40 39 33 33 33 36 36 34 33 33 32 30 28 24 24 22 28 30 24 26 18 20 23 21 19 16 14 16 19 20 18 18 19 20 24 27 18 15 29
Wind_Direction
276 272 273 275 277 277 276 275 271 270 271 272 271 273 277 276 275 274 271 266 258 250 244 234 224 226 230 235 229 232 233 223 230 221 209 215 200 210 202 195 202 212 213 215 221
280 278 277 277 280 281 282 281 279 277 274 270 269 269 271 276 277 275 276 267 259 250 243 231 222 223 227 232 237 240 238 232 228 219 220 213 204 210 206 195 200 209 216 214 216
294 291 288 287 287 287 286 283 280 278 276 274 268 266 266 268 271 272 275 272 268 257 245 228 221 225 228 231 238 241 243 235 236 232 226 223 214 210 211 200 208 212 211 212 212
307 306 304 301 298 294 292 289 284 280 275 272 271 265 264 264 264 266 266 265 262 254 239 231 225 227 232 236 236 245 249 244 237 241 232 238 224 213 211 201 209 216 215 216 217
305 307 309 304 302 294 295 294 290 285 279 269 266 264 266 263 263 260 260 259 257 254 244 236 227 228 233 238 241 246 245 246 242 243 236 243 224 220 207 207 211 210 225 220 222
298 299 296 301 305 314 323 316 301 289 281 274 263 259 256 256 255 257 257 254 251 244 241 236 233 233 234 235 237 240 244 245 249 252 252 252 236 227 216 216 218 212 214 229 229
308 292 287 296 298 313 326 327 319 301 285 276 269 256 254 249 250 256 254 251 246 248 243 241 236 235 235 237 239 240 241 243 243 244 245 247 242 232 224 226 218 211 211 213 231
291 300 301 294 295 302 312 324 323 321 303 290 272 262 254 252 249 249 251 252 250 245 245 246 244 243 242 240 240 241 244 243 243 243 242 239 236 231 233 235 220 210 212 212 210
308 277 282 293 296 291 296 308 312 316 314 305 292 278 260 254 250 247 250 250 252 252 248 246 245 245 245 244 244 245 247 248 246 246 241 237 238 232 233 234 235 220 210 215 214
327 303 278 275 280 287 288 294 304 312 311 304 297 286 274 258 252 249 249 253 251 250 249 248 247 246 246 245 246 247 248 251 251 249 248 245 239 239 235 236 236 237 223 211 214
334 321 296 277 276 275 279 282 296 306 310 304 306 297 278 265 262 264 256 252 252 251 248 248 248 248 249 250 249 249 251 252 254 254 252 251 246 243 240 240 238 237 235 235 228
7 1 335 294 289 285 286 283 293 305 308 305 302 298 286 274 265 257 259 259 257 257 257 257 252 250 249 251 253 254 254 253 254 254 256 252 248 247 243 241 240 239 238 235 237
10 7 354 323 303 301 298 291 297 304 308 307 304 301 294 279 274 272 260 257 256 258 258 257 257 257 258 258 257 257 256 256 257 256 258 257 248 248 247 245 243 243 240 238 235
15 10 5 1 335 320 312 311 310 308 305 306 302 298 289 284 285 278 271 270 273 269 267 264 264 263 262 261 261 261 262 262 261 259 258 256 254 248 250 249 249 245 245 242 238
20 15 16 9 2 353 336 324 318 311 317 319 317 301 290 284 284 281 272 271 272 270 265 277 277 274 270 267 265 266 264 263 265 264 264 262 259 250 249 251 251 248 248 245 241
15 20 21 16 7 358 348 345 334 329 324 322 310 299 300 300 298 291 288 285 277 275 280 286 279 270 270 267 266 279 290 284 278 279 266 267 266 251 253 251 249 250 248 248 246
13 11 11 11 7 0 353 347 338 334 326 322 318 317 315 310 304 300 296 292 286 287 293 284 260 276 296 293 292 300 304 306 302 297 289 282 274 262 262 254 250 246 245 246 245
6 9 9 7 3 359 351 345 343 336 326 323 323 322 320 311 306 301 298 294 291 292 293 286 251 292 302 295 298 300 306 307 301 297 289 276 271 263 259 261 253 251 249 245 243
359 359 359 358 1 358 354 350 346 343 336 330 324 327 319 311 304 301 297 291 289 296 297 292 268 287 301 300 304 312 317 309 299 294 286 284 271 259 247 257 270 259 257 251 246
356 353 352 349 350 351 350 350 348 344 342 336 333 333 326 315 308 301 294 293 290 292 294 283 280 302 300 300 298 308 309 304 297 293 286 276 273 263 250 263 275 279 270 268 259
348 349 346 343 343 339 340 345 344 342 340 341 337 334 334 326 312 302 299 288 286 293 292 276 283 306 300 298 309 308 303 291 291 284 279 276 266 264 275 294 280 284 272 273 269
341 340 340 338 336 334 333 335 336 336 335 338 337 335 334 327 316 306 301 293 289 286 274 268 277 288 290 298 310 307 291 282 283 287 269 274 261 275 295 291 284 291 286 280 274
334 336 335 333 331 328 325 325 327 331 332 333 333 332 330 328 323 317 306 297 295 284 276 259 267 277 289 296 304 309 292 280 281 277 275 271 281 280 294 293 285 306 306 298 276
330 332 334 333 331 326 317 316 321 323 325 327 327 328 326 328 325 322 309 302 294 288 281 261 267 282 293 298 308 309 298 279 278 285 284 275 280 278 286 290 280 308 310 301 275
326 329 330 331 332 331 327 316 314 316 318 318 321 323 323 323 323 321 313 308 300 285 283 261 264 271 284 287 298 308 297 280 275 284 286 296 284 284 276 287 296 305 294 323 239
319 321 322 325 329 328 326 321 314 312 311 312 313 317 317 320 318 318 315 307 306 287 277 270 264 271 278 279 296 304 310 309 293 287 307 306 312 302 299 299 309 310 304 142 185
316 315 318 320 326 328 324 321 315 311 309 308 308 311 309 314 315 313 311 311 306 294 277 267 264 268 275 268 284 296 304 311 300 298 299 304 312 314 303 275 290 297 319 139 202